Location: Gugi
(45.4667°N, 11.1000°E)
Time: 02:22:52
(UTC+00:00)

Meteor 2-10 Rocket - Pass Details

Date: 17 November 2019
Orbit: 734 x 884 km, 81.2° (Epoch: 05 December)

Event Time Altitude Azimuth Distance (km) Brightness Sun altitude
Rises 16:08:41 0° 199° (SSW) 3,150 7.4 -4.8°
Reaches altitude 10° 16:11:01 10° 203° (SSW) 2,231 6.6 -5.2°
Maximum altitude 16:15:56 60° 284° (WNW) 847 4.1 -6.0°
Drops below altitude 10° 16:20:58 10° 4° (N) 2,279 5.7 -6.8°
Sets 16:23:23 0° 8° (N) 3,224 6.4 -7.2°
